Weather History for Lubbock, TX

Change the Weather History Date:

Tuesday, September 11, 2012

  Actual Average Record
Temperature  
Mean Temperature 80 °F 73 °F  
Max Temperature 94 °F 86 °F 103 °F (2000)
Min Temperature 65 °F 61 °F 47 °F (1959)
Degree Days  
Heating Degree Days 0 0  
Month to date heating degree days 0 0  
Since 1 July heating degree days 0 0  
Cooling Degree Days 15 9  
Month to date cooling degree days 152 110  
Year to date cooling degree days 2134 1636  
Growing Degree Days 30 (Base 50)    
Moisture  
Dew Point 43 °F    
Average Humidity 29    
Maximum Humidity 37    
Minimum Humidity 21    
Precipitation  
Precipitation 0.00 in 0.09 in 7.46 in (2008)
Month to date precipitation 0.20 0.95  
Year to date precipitation 8.62 14.02  
Snow  
Snow 0.00 in 0.00 in T in (1950)
Month to date snowfall 0.0 0.0  
Since 1 July snowfall 0.0 0.0  
Since 1 September snowfall 0.0 0.0  
Snow Depth 0.00 in    
Sea Level Pressure  
Sea Level Pressure 29.88 in    
Wind  
Wind Speed 14 mph (South)    
Max Wind Speed 24 mph    
Max Gust Speed 32 mph    
Visibility 10 miles    
Events      
T = Trace of Precipitation, MM = Missing Value Source: NWS Daily Summary

Daily Weather History Graph

Daily Weather History Graph

Search for Another Location

Airport:

Trip Planner

Search our weather history database for the weather conditions in past years. The results will help you decide how hot, cold, wet, or windy it might be!

Date:

Astronomy

Sep. 11, 2012 Rise Set
Actual Time 7:28 AM CDT 7:58 PM CDT
Civil Twilight 7:03 AM CDT 8:23 PM CDT
Nautical Twilight 6:33 AM CDT 8:52 PM CDT
Astronomical Twilight 6:03 AM CDT 9:22 PM CDT
Moon 2:58 AM CDT (9/11) 5:00 PM CDT (9/11)
Length of Visible Light 13h 20m
Length of Day
12h 30m
Waning Crescent, 21% of the Moon is Illuminated
Sep 11
Waning Crescent
Sep 15
New
Sep 22
First Quarter
Sep 29
Full
Oct 8
Last Quarter

Hourly Weather History & Observations

Time (CDT) Temp. Dew Point Humidity Pressure Visibility Wind Dir Wind Speed Gust Speed Precip Events Conditions
12:53 AM 73.0 °F 39.9 °F 30% 29.91 in 10.0 mi SSE 17.3 mph - N/A   Scattered Clouds
1:53 AM 73.9 °F 37.0 °F 26% 29.91 in 10.0 mi South 15.0 mph - N/A   Mostly Cloudy
2:53 AM 72.0 °F 36.0 °F 27% 29.90 in 10.0 mi SSE 13.8 mph - N/A   Mostly Cloudy
3:53 AM 70.0 °F 36.0 °F 29% 29.90 in 10.0 mi South 11.5 mph - N/A   Mostly Cloudy
4:53 AM 68.0 °F 36.0 °F 31% 29.89 in 10.0 mi South 10.4 mph - N/A   Partly Cloudy
5:53 AM 66.0 °F 36.0 °F 33% 29.90 in 10.0 mi South 8.1 mph - N/A   Scattered Clouds
6:53 AM 66.0 °F 37.9 °F 36% 29.91 in 10.0 mi South 8.1 mph - N/A   Mostly Cloudy
7:53 AM 66.9 °F 39.9 °F 37% 29.93 in 10.0 mi South 9.2 mph - N/A   Scattered Clouds
8:53 AM 69.1 °F 42.1 °F 38% 29.94 in 10.0 mi South 12.7 mph - N/A   Scattered Clouds
9:53 AM 75.0 °F 43.0 °F 32% 29.94 in 10.0 mi SSW 16.1 mph - N/A   Scattered Clouds
10:53 AM 78.1 °F 45.0 °F 31% 29.95 in 10.0 mi South 13.8 mph - N/A   Scattered Clouds
11:53 AM 81.0 °F 46.0 °F 29% 29.93 in 10.0 mi SSW 17.3 mph 21.9 mph N/A   Scattered Clouds
12:53 PM 86.0 °F 46.0 °F 25% 29.90 in 10.0 mi South 13.8 mph 21.9 mph N/A   Scattered Clouds
1:53 PM 89.1 °F 46.9 °F 23% 29.87 in 10.0 mi South 17.3 mph - N/A   Scattered Clouds
2:53 PM 91.0 °F 46.9 °F 22% 29.84 in 10.0 mi South 17.3 mph 25.3 mph N/A   Scattered Clouds
3:53 PM 93.0 °F 48.0 °F 21% 29.82 in 10.0 mi South 19.6 mph 24.2 mph N/A   Scattered Clouds
4:53 PM 93.0 °F 48.0 °F 21% 29.81 in 10.0 mi South 15.0 mph 24.2 mph N/A   Scattered Clouds
5:53 PM 91.4 °F 46.4 °F 21% 29.96 in 10.0 mi South 18.4 mph 25.3 mph N/A   Scattered Clouds
6:53 PM 90.0 °F 46.9 °F 23% 29.80 in 10.0 mi South 15.0 mph - N/A   Mostly Cloudy
7:53 PM 87.1 °F 46.9 °F 25% 29.80 in 10.0 mi South 12.7 mph - N/A   Mostly Cloudy
8:53 PM 82.0 °F 48.0 °F 30% 29.83 in 10.0 mi SSE 11.5 mph - N/A   Mostly Cloudy
9:53 PM 79.0 °F 48.0 °F 34% 29.85 in 10.0 mi SSE 12.7 mph - N/A   Mostly Cloudy
10:53 PM 78.1 °F 45.0 °F 31% 29.86 in 10.0 mi SSE 15.0 mph - N/A   Partly Cloudy
11:53 PM 75.9 °F 45.0 °F 33% 29.87 in 10.0 mi SSE 11.5 mph - N/A   Partly Cloudy